When you browse on this site, cookies collect data to enhance your experience and personalize the content and advertising you see.
Visit our Privacy Policy to learn more. By continuing to use the site, you agree to this use of cookies and data.

Meteo pe oră la Brisbane

Astăzi, 12 August, Miercuri

Timp Temperatura Precipitaţii Vânt Presiune Umiditate
00:00 +15°C° 0 mm 1 m/s 762 mmHg 84%
01:00 +14°C° 0 mm 1 m/s 762 mmHg 86%
02:00 +14°C° 0 mm 1 m/s 762 mmHg 86%
03:00 +14°C° 0 mm 1 m/s 762 mmHg 87%
04:00 +13°C° 0 mm 1 m/s 762 mmHg 87%
05:00 +14°C° 0 mm 1 m/s 762 mmHg 86%
06:00 +14°C° 0 mm 1 m/s 763 mmHg 84%
07:00 +14°C° 0 mm 1 m/s 763 mmHg 83%
08:00 +16°C° 0 mm 1 m/s 763 mmHg 76%
09:00 +19°C° 0 mm 1 m/s 763 mmHg 69%
10:00 +19°C° 0 mm 0 m/s 763 mmHg 62%
11:00 +22°C° 0 mm 1 m/s 763 mmHg 58%
12:00 +23°C° 0 mm 1 m/s 762 mmHg 53%
13:00 +24°C° 0 mm 2 m/s 761 mmHg 49%
14:00 +24°C° 0 mm 2 m/s 760 mmHg 53%
15:00 +22°C° 0 mm 3 m/s 760 mmHg 56%
16:00 +21°C° 0 mm 3 m/s 760 mmHg 60%
17:00 +20°C° 0 mm 3 m/s 760 mmHg 67%
18:00 +19°C° 0 mm 3 m/s 760 mmHg 73%
19:00 +17°C° 0 mm 3 m/s 761 mmHg 80%
20:00 +17°C° 0 mm 3 m/s 761 mmHg 81%
21:00 +17°C° 0 mm 3 m/s 761 mmHg 83%
22:00 +16°C° 0 mm 2 m/s 761 mmHg 85%
23:00 +16°C° 0 mm 2 m/s 761 mmHg 86%

Mâine, 13 August, Joi

Timp Temperatura Precipitaţii Vânt Presiune Umiditate
00:00 +15°C° 0 mm 2 m/s 761 mmHg 88%
01:00 +15°C° 0 mm 2 m/s 761 mmHg 89%
02:00 +15°C° 0 mm 2 m/s 760 mmHg 89%
03:00 +14°C° 0 mm 2 m/s 760 mmHg 90%
04:00 +14°C° 0 mm 2 m/s 760 mmHg 91%
05:00 +14°C° 0 mm 1 m/s 761 mmHg 90%
06:00 +14°C° 0 mm 1 m/s 761 mmHg 89%
07:00 +14°C° 0 mm 1 m/s 762 mmHg 88%
08:00 +18°C° 0 mm 1 m/s 762 mmHg 76%
09:00 +20°C° 0 mm 1 m/s 762 mmHg 65%
10:00 +23°C° 0 mm 1 m/s 762 mmHg 53%
11:00 +25°C° 0 mm 1 m/s 761 mmHg 48%
12:00 +26°C° 0 mm 2 m/s 760 mmHg 44%
13:00 +28°C° 0 mm 2 m/s 760 mmHg 39%
14:00 +27°C° 0 mm 2 m/s 759 mmHg 41%
15:00 +27°C° 0 mm 2 m/s 759 mmHg 44%
16:00 +26°C° 0 mm 3 m/s 759 mmHg 46%
17:00 +24°C° 0 mm 2 m/s 759 mmHg 55%
18:00 +21°C° 0 mm 2 m/s 760 mmHg 64%
19:00 +19°C° 0 mm 2 m/s 760 mmHg 74%
20:00 +19°C° 0 mm 2 m/s 760 mmHg 76%
21:00 +19°C° 0 mm 1 m/s 761 mmHg 78%
22:00 +19°C° 0 mm 1 m/s 761 mmHg 81%
23:00 +19°C° 0 mm 1 m/s 761 mmHg 81%

Poimâine, 14 August, Vineri

Timp Temperatura Precipitaţii Vânt Presiune Umiditate
00:00 +18°C° 0 mm 1 m/s 761 mmHg 82%
01:00 +16°C° 0 mm 0 m/s 760 mmHg 83%
02:00 +18°C° 0 mm 1 m/s 760 mmHg 82%
03:00 +16°C° 0 mm 1 m/s 760 mmHg 82%
04:00 +16°C° 0 mm 1 m/s 760 mmHg 81%
05:00 +16°C° 0 mm 1 m/s 761 mmHg 80%
06:00 +16°C° 0 mm 1 m/s 761 mmHg 79%
07:00 +15°C° 0 mm 0 m/s 761 mmHg 77%
08:00 +18°C° 0 mm 0 m/s 761 mmHg 68%
09:00 +22°C° 0 mm 1 m/s 761 mmHg 59%
10:00 +25°C° 0 mm 1 m/s 761 mmHg 49%
11:00 +26°C° 0 mm 2 m/s 761 mmHg 47%
12:00 +27°C° 0 mm 2 m/s 760 mmHg 46%
13:00 +28°C° 0 mm 3 m/s 759 mmHg 44%
14:00 +27°C° 0 mm 4 m/s 759 mmHg 50%
15:00 +26°C° 0 mm 4 m/s 759 mmHg 56%
16:00 +23°C° 0 mm 4 m/s 759 mmHg 63%
17:00 +23°C° 0 mm 4 m/s 759 mmHg 67%
18:00 +22°C° 0 mm 4 m/s 759 mmHg 71%
19:00 +21°C° 0 mm 5 m/s 760 mmHg 76%
20:00 +20°C° 0.1 mm 4 m/s 760 mmHg 75%
21:00 +20°C° 0.1 mm 4 m/s 760 mmHg 75%
22:00 +20°C° 0.1 mm 4 m/s 760 mmHg 74%
23:00 +19°C° 0 mm 4 m/s 760 mmHg 77%

15 August, Sâmbătă

Timp Temperatura Precipitaţii Vânt Presiune Umiditate
00:00 +18°C° 0 mm 3 m/s 760 mmHg 79%
01:00 +18°C° 0 mm 3 m/s 759 mmHg 82%
02:00 +18°C° 0 mm 3 m/s 759 mmHg 81%
03:00 +18°C° 0 mm 2 m/s 759 mmHg 80%
04:00 +18°C° 0 mm 2 m/s 759 mmHg 79%
05:00 +18°C° 0 mm 2 m/s 759 mmHg 79%
06:00 +19°C° 0 mm 1 m/s 760 mmHg 78%
07:00 +17°C° 0 mm 0 m/s 760 mmHg 78%
08:00 +20°C° 0 mm 1 m/s 760 mmHg 76%
09:00 +20°C° 0 mm 1 m/s 760 mmHg 73%
10:00 +21°C° 0 mm 1 m/s 760 mmHg 71%
11:00 +21°C° 0 mm 1 m/s 759 mmHg 70%
12:00 +21°C° 0 mm 1 m/s 759 mmHg 70%
13:00 +21°C° 0 mm 1 m/s 758 mmHg 70%
14:00 +22°C° 0 mm 1 m/s 757 mmHg 67%
15:00 +22°C° 0 mm 1 m/s 757 mmHg 64%
16:00 +23°C° 0 mm 1 m/s 757 mmHg 60%
17:00 +22°C° 0.2 mm 1 m/s 757 mmHg 66%
18:00 +20°C° 0.2 mm 2 m/s 757 mmHg 72%
19:00 +19°C° 0.2 mm 2 m/s 757 mmHg 78%
20:00 +18°C° 1.4 mm 2 m/s 757 mmHg 82%
21:00 +18°C° 1.4 mm 2 m/s 757 mmHg 86%
22:00 +17°C° 1.4 mm 3 m/s 757 mmHg 89%
23:00 +17°C° 0.4 mm 3 m/s 757 mmHg 89%

16 August, Duminică

Timp Temperatura Precipitaţii Vânt Presiune Umiditate
00:00 +17°C° 0.4 mm 3 m/s 757 mmHg 88%
01:00 +17°C° 0.4 mm 3 m/s 756 mmHg 88%
02:00 +16°C° 0 mm 3 m/s 756 mmHg 87%
03:00 +16°C° 0 mm 3 m/s 756 mmHg 87%
04:00 +14°C° 0 mm 3 m/s 756 mmHg 86%
05:00 +14°C° 0 mm 3 m/s 756 mmHg 86%
06:00 +13°C° 0 mm 3 m/s 757 mmHg 86%
07:00 +13°C° 0 mm 3 m/s 758 mmHg 85%
08:00 +16°C° 0 mm 3 m/s 758 mmHg 77%
09:00 +18°C° 0 mm 3 m/s 758 mmHg 68%
10:00 +20°C° 0 mm 3 m/s 758 mmHg 60%
11:00 +21°C° 0 mm 3 m/s 757 mmHg 53%
12:00 +23°C° 0 mm 2 m/s 757 mmHg 46%
13:00 +25°C° 0 mm 2 m/s 756 mmHg 40%
14:00 +25°C° 0 mm 2 m/s 756 mmHg 40%
15:00 +24°C° 0 mm 2 m/s 756 mmHg 41%
16:00 +24°C° 0 mm 2 m/s 756 mmHg 42%
17:00 +23°C° 0 mm 2 m/s 756 mmHg 49%
18:00 +21°C° 0 mm 1 m/s 757 mmHg 56%
19:00 +19°C° 0 mm 1 m/s 758 mmHg 63%
20:00 +18°C° 0 mm 1 m/s 758 mmHg 66%
21:00 +16°C° 0 mm 1 m/s 758 mmHg 68%
22:00 +16°C° 0 mm 1 m/s 759 mmHg 70%
23:00 +15°C° 0 mm 1 m/s 758 mmHg 72%

17 August, Luni

Timp Temperatura Precipitaţii Vânt Presiune Umiditate
00:00 +15°C° 0 mm 2 m/s 758 mmHg 75%
01:00 +14°C° 0 mm 2 m/s 758 mmHg 77%
02:00 +14°C° 0 mm 2 m/s 758 mmHg 78%
03:00 +13°C° 0 mm 2 m/s 758 mmHg 80%
04:00 +13°C° 0 mm 2 m/s 758 mmHg 81%
05:00 +13°C° 0 mm 2 m/s 758 mmHg 80%
06:00 +13°C° 0 mm 2 m/s 759 mmHg 80%
07:00 +13°C° 0 mm 2 m/s 759 mmHg 79%
08:00 +16°C° 0 mm 2 m/s 759 mmHg 69%
09:00 +18°C° 0 mm 2 m/s 759 mmHg 59%
10:00 +21°C° 0 mm 2 m/s 759 mmHg 48%
11:00 +23°C° 0 mm 2 m/s 758 mmHg 42%
12:00 +24°C° 0 mm 2 m/s 758 mmHg 37%
13:00 +25°C° 0 mm 2 m/s 757 mmHg 31%
14:00 +25°C° 0 mm 2 m/s 757 mmHg 33%
15:00 +24°C° 0 mm 2 m/s 756 mmHg 34%
16:00 +24°C° 0 mm 2 m/s 756 mmHg 36%
17:00 +21°C° 0 mm 2 m/s 757 mmHg 43%
18:00 +19°C° 0 mm 2 m/s 757 mmHg 49%
19:00 +17°C° 0 mm 3 m/s 758 mmHg 56%
20:00 +16°C° 0 mm 3 m/s 758 mmHg 58%
21:00 +16°C° 0 mm 3 m/s 759 mmHg 59%
22:00 +15°C° 0 mm 2 m/s 759 mmHg 61%
23:00 +14°C° 0 mm 2 m/s 759 mmHg 63%
Arată mai mult